www.pogodaiklimat.ru

Погода и климат >> Архив погоды >> Италия >> Неаполь


АРХИВ ПОГОДЫ в Неаполе

Время (UTC), дата Ветер
(напр.,м/с)
 
Видим.   Явления Облачность Т
(С)
Тd
(С)
f
(%)
Тe
(С)
Тes
(С)
Комфортность P
(гПа)
Po
(гПа)
Тmin
(С)
Tmax
(С)
R
(мм)
R24
(мм)
S
(см)
09 14.07 СВ 3 20 км ясно +27.2 +12.1 39 +28 +43 жарко 1010.8 1000.2
12 14.07 СВ 4 20 км ясно +30.1 +12.0 33 +31 +43 жарко 1010.7 1000.0
15 14.07 ЮВ 3 30 км 3/3 1500 м
[Cu hum]
+29.3 +14.8 41 +32 +37 душно 1009.5 998.8
18 14.07 В 4 30 км 3/0
[Ci fib]
+27.6 +11.8 37 +29 +29 жарко 1009.3 998.7 +31.1
21 14.07 В 3 10 км 3/3 1500 м
[Cu hum]
+24.7 +10.7 41 +26 +26 жарко 1009.9 999.2
00 15.07 С 3 10 км ясно +23.4 +9.9 42 +25 +25 комфорт 1008.9 998.2
03 15.07 С 3 10 км 5/5 1200 м
[Cu hum]
+23.3 +9.9 43 +25 +25 комфорт 1007.3 996.6
06 15.07 нст 1 20 км 8/3 900 м
[Sc diur, vesp Ac cuf]
+23.7 +8.9 39 +24 +26 комфорт 1007.5 996.8 +21.7
09 15.07 СВ 3 20 км 9/0
[Ac cuf]
+27.2 +9.7 33 +28 +32 жарко 1007.4 996.8
12 15.07 Ю 3 20 км 3/0 1500 м
[Ac cuf]
+30.7 +10.7 29 +31 +43 жарко 1006.5 995.8
15 15.07 ЮЗ 4 20 км 4/3 1200 м
[Cu Sc Ci fib]
+28.3 +12.5 38 +30 +34 жарко 1006.2 995.6
18 15.07 В 4 20 км 5/5 1350 м
[Cu med, cong]
+27.0 +13.7 44 +29 +29 жарко 1006.4 995.8 +31.9
21 15.07 В 5 10 км гроза, ливневой дождь 9/6 600 м
[Cb cap Ac As]
+24.4 +14.1 53 +27 +27 жарко 1007.1 996.4
00 16.07 В 3 16 км 9/9 900 м
[Sc]
+23.1 +15.2 61 +27 +27 душно 1006.8 996.1
03 16.07 СВ 7 20 км 9/9 2000 м
[Sc]
+21.6 +14.0 62 +24 +24 комфорт 1006.2 995.6
06 16.07 СВ 6 20 км 8/8 1350 м
[Cu med, cong]
+23.0 +14.0 57 +26 +27 жарко 1006.6 995.9 +21.1
09 16.07 СВ 7 <100 м 5/5 1350 м
[Cu hum]
+26.1 +14.5 49 +29 +31 жарко 1008.0 997.4
12 16.07 СВ 6 10 км 6/6 750 м
[Cb calv]
+27.9 +12.1 38 +29 +32 жарко 1008.6 998.0
15 16.07 СВ 5 15 км 9/3 750 м
[Cu med, cong Ac trans]
+27.4 +13.0 41 +29 +31 жарко 1009.6 999.0
18 16.07 СВ 4 15 км 3/3 900 м
[Cu hum]
+26.0 +10.5 38 +27 +27 жарко 1010.7 1000.0 +29.4
21 16.07 СВ 1 15 км ясно +23.8 +8.9 39 +25 +25 комфорт 1012.5 1001.8
00 17.07 СЗ 1 20 км ясно +19.0 +9.3 53 +21 +21 комфорт 1012.9 1002.2
03 17.07 С 2 н/о н/о +19.0 +9.0 52 +20 +20 прохладно 1012.5 1001.8
06 17.07 С 2 20 км ясно +22.2 +9.3 44 +24 +27 комфорт 1013.0 1002.3 +17.1
09 17.07 СВ 2 15 км ясно +27.9 +11.0 35 +29 +44 жарко 1013.0 1002.2
12 17.07 ЮЗ 3 15 км 3/3 900 м
[Cu hum]
+30.7 +11.5 31 +31 +43 жарко 1012.5 1001.8
15 17.07 ЮЗ 3 10 км ясно +29.2 +13.4 38 +31 +37 жарко 1012.2 1001.5
18 17.07 СЗ 4 10 км ясно +25.7 +16.4 56 +29 +29 душно 1012.2 1001.5 +30.7
21 17.07 15 км ясно +23.6 +17.6 69 1012.5 1001.8
00 18.07 В 1 15 км ясно +21.8 +17.4 76 +26 +26 душно 1012.3 1001.6
03 18.07 СВ 1 12 км ясно +20.2 +14.7 71 +24 +24 комфорт 1011.9 1001.2
06 18.07 15 км ясно +22.3 +14.5 61 1012.4 1001.7 +18.9
09 18.07 ЮЗ 3 15 км 3/3 750 м
[Cu hum]
+26.9 +16.4 53 +30 +39 душно 1013.1 1002.3
12 18.07 ЮЗ 4 15 км 3/3 1200 м
[Cu hum]
+28.1 +17.3 52 +32 +42 душно 1013.0 1002.3
15 18.07 Ю 4 20 км 3/3 900 м
[Cu med, cong Ci fib]
+27.3 +17.1 54 +31 +35 душно 1013.1 1002.4
18 18.07 СЗ 2 20 км 3/3 1500 м
[Sc diur, vesp]
+26.2 +16.9 57 +30 +30 душно 1013.4 1002.6 +28.6
21 18.07 15 км ясно +23.5 +17.9 71 1014.7 1003.9
00 19.07 СВ 1 10 км ясно +22.5 +16.3 68 +27 +27 душно 1015.2 1004.5
03 19.07 СВ 1 10 км ясно +20.9 +16.5 76 +26 +26 душно 1015.0 1004.3
06 19.07 нст 1 20 км 3/3 750 м
[Cu hum]
+23.6 +19.1 76 +28 +32 душно 1016.0 1005.2 +20.5
09 19.07 20 км 3/3 750 м
[Cu hum]
+27.8 +18.0 55 1016.7 1005.9
12 19.07 Ю 4 20 км 3/3 1200 м
[Cu hum]
+29.1 +20.2 59 +36 +45 очень
душно
1016.3 1005.5
15 19.07 СЗ 5 18 км 9/9 2000 м
[Sc]
+29.0 +17.8 51 +33 +34 очень
душно
1016.3 1005.6
18 19.07 СЗ 4 19 км 3/3 2000 м
[Sc diur, vesp]
+25.6 +20.0 71 +31 +31 очень
душно
1016.8 1006.0 +30.7
21 19.07 СВ 1 20 км ясно +24.7 +20.6 78 +31 +31 очень
душно
1017.3 1006.5
00 20.07 С 2 20 км ясно +23.3 +17.3 69 +29 +29 душно 1017.4 1006.6
03 20.07 В 2 20 км ясно +21.4 +18.1 81 +26 +26 душно 1017.7 1006.9
06 20.07 СВ 1 20 км ясно +23.4 +18.2 73 +29 +34 душно 1018.4 1007.6 +20.3
09 20.07 Ю 2 20 км 3/3 900 м
[Cu hum]
+28.8 +17.2 50 +33 +45 очень
душно
1019.2 1008.4
12 20.07 Ю 3 20 км 3/3 900 м
[Cu hum]
+30.0 +18.8 51 +35 +46 очень
душно
1019.2 1008.4
15 20.07 Ю 3 20 км 1/1 1200 м
[Cu hum]
+30.0 +19.9 55 +36 +43 очень
душно
1018.6 1007.8
18 20.07 СЗ 4 25 км ясно +26.9 +18.8 61 +32 +32 очень
душно
1019.0 1008.2 +31.2
21 20.07 С 1 15 км ясно +24.7 +19.8 74 +30 +30 очень
душно
1020.1 1009.3
00 21.07 З 1 21 км ясно +23.5 +19.5 78 +29 +29 душно 1020.2 1009.4
03 21.07 19 км ясно +21.7 +18.6 83 1020.0 1009.2

 

Местоположение метеостанции Неаполь (Италия): широта 40.85 долгота 14.30 высота над уровнем моря 72 м.

В архиве по умолчанию представлена погода в Неаполе за последнюю неделю. Архивные данные за месяц целиком и за предыдущие месяцы, начиная с января 2011 года, Вы можете получить, выбрав интересующий диапазон дат из раскрывающегося списка и нажав кнопку "Ввод!".


*Определитесь, кто Вы:
робот инопланетянин человек

Внимание! Время в таблицах - всемирное. Для получения местного времени необходимо прибавить поправку, которая равна 1 ч.

Смотрите также архив погоды в соседних городах и на ближайших метеорологических станциях:

Погода в Казерте (Италия) (25 км)
Погода в Граццанизе (Италия) (29 км)
Погода на Капри (Италия) (34 км)
Погода в Тревико (Италия) (81 км)
Погода в Кампобассо (Италия) (85 км)
Погода в Торре-Олеволе (Италия) (109 км)
Погода на Понце (Италия) (114 км)
Погода во Фрозиноне (Италия) (121 км)
Погода на Капо Палинуро (Италия) (124 км)
Погода в Фучино (Италия) (138 км)

Пояснения к столбцам:

Ветер - указаны скорость ветра в м/с - средняя за 10 мин, порывы в срок и между сроками (в фигурных скобках) и направление, откуда дует ветер: С - северный, СВ - северо-восточный, В - восточный, ЮВ - юго-восточный, Ю - южный, ЮЗ - юго-западный, З - западный, СЗ - северо-западный.
Видимость - горизонтальная дальность видимости в метрах или километрах. При видимости от 1 до 10 км при отсутствии осадков обычно наблюдается дымка, при ухудшении видимости до 1 км и менее - туман. В сухую погоду видимость может ухудшаться дымом, пылью или мглою.
Явления - указаны атмосферные явления, наблюдавшиеся в срок или в последний час перед сроком; фигурными скобками обозначены явления, наблюдавшиеся между сроками (за 1-3 часа до срока); квадратными скобками обозначены град или гололедные отложения с указанием их диаметра в мм.
Облачность - указаны через наклонную черту общая и нижняя облачность в баллах и высота нижней границы облаков в метрах; квадратными скобками обозначены формы облаков: Ci - перистые, Cs - перисто-слоистые, Cc - перисто-кучевые, Ac - высококучевые, As - высокослоистые, Sc - слоисто-кучевые, Ns - слоисто-дождевые, Cu - кучевые, Cb - кучево-дождевые. Подробнее классификацию облаков см. в Атласе облаков (PDF).
T - Температура воздуха - температура, измеренная на высоте 2 м над землей.
Td - Температура точки росы - температура, при понижении до которой содержащийся в воздухе водяной пар достигнет насыщения.
f - Относительная влажность воздуха - влажноcть воздуха, измеренная на высоте 2 м над землей.
Te - Эффективная температура - температура, которую ощущает одетый по сезону человек в тени. Характеристика душности погоды. При расчете учитывается влияние влажности воздуха и скорости ветра на теплоощущения человека.
Tes - Эффективная температура на солнце - температура, которую ощущает человек, с поправкой на солнечный нагрев. Характеристика знойности погоды. Зависит от высоты солнца над горизонтом, облачности и скорости ветра. Ночью, в пасмурную погоду, а также при ветре 12 м/с и более поправка равна нулю.
P - Атмосферное давление - приведенное к уровню моря атмосферное давление.
Po - Атмосферное давление - измеренное на уровне метеостанции атмосферное давление.
Tmin - Минимальная температура - минимум температуры воздуха на высоте 2 м над землей.
Tmax - Максимальная температура - максимум температуры воздуха на высоте 2 м над землей.
R - Количество осадков - Количество выпавших осадков за период времени, мм. При наведении курсора мыши на число - период времени, за который выпало указанное количество осадков.
R24 - Количество осадков - Количество выпавших осадков за 24 часа, мм.
S - Снежный покров - Высота снежного покрова, см. При наведении курсора мыши на число - состояние снежного покрова и степень покрытия местности в баллах.